Terminal Aerodrome Forecast
Issued by NWS

Home | Current Version | Previous Version | Text Only | Print | Product List | Glossary On
Versions: 1 2 3 4 5 6 7 8 9 10 11 12 13 14 15 16 17
000
FTUS43 KILX 222300
TAFDEC
TAF
KDEC 222320Z 2300/2324 15012KT 3SM -RA BR OVC006
     FM230900 20012KT 4SM BR BKN015
     FM231500 22014KT P6SM BKN025=

USA.gov is the U.S. government's official web portal to all federal, state and local government web resources and services.